Current weather by "City, St" or "zip code"  
 
Advertise Here

Current Conditions: South County Airport of Santa Clara County, CA

Fair


50.0 F

Last Updated on Jan 20 2021, 9:55 am PST
Humidity: 40%
Wind Speed: SE 4.6 mph
Barometer 30.16 in
Dewpoint: 26.6 F
Visibility: 10.00 mi
Precip: --
Heat Index: NA
Wind Chill: 48 F
Current conditions at:

South County Airport of Santa Clara County, CA (KE16)

Lat: 37.0815861 Lon: 121.5968056

Local Radar Image active severe weather and emergency alerts image image weather storm and storm spotter reports image weather observation monitoring service image
Local
Radar
Active
Alerts
Storm Reports Obs
Monitoring

Sign-up For Email & Text Message Weather Alert Notification Services


Advertise Here

Observation History for South County Airport of Santa Clara County, CA


Time Wind
(mph)
Vis
(mi)
Weather Precip (in) Temperature (F) Relative
Humidity
Wind
Chill
(F)
Heat
Index
(F)
Pressure
Air Dwpt altimeter
(in)
sea level
(mb)
Rmks
9:55 am PST SE 4.6 10.00 Fair -- 50.0 26.6 40% 48 NA 30.16 M
9:35 am PST N 0.0 10.00 Fair -- 50.0 26.6 40% NA NA 30.16 M
8:55 am PST N 3.5 10.00 Fair -- 45.0 26.6 49% NA NA 30.16 M
8:35 am PST N 0.0 10.00 Fair -- 41.0 26.6 57% NA NA 30.15 M
7:55 am PST N 3.5 10.00 Fair -- 37.0 26.6 65% NA NA 30.14 M
6:55 am PST N 4.6 10.00 Fair -- 37.0 24.8 60% 33 NA 30.13 M
5:55 am PST N 0.0 10.00 Fair -- 37.0 24.8 60% NA NA 30.13 M
5:35 am PST N 4.6 10.00 Fair -- 37.0 24.8 60% 33 NA 30.12 M
4:55 am PST N 4.6 10.00 Fair -- 37.0 24.8 60% 33 NA 30.11 M
3:55 am PST N 0.0 10.00 Fair -- 37.0 23.0 56% NA NA 30.11 M
2:55 am PST S 3.5 10.00 Fair -- 39.0 23.0 52% NA NA 30.10 M
1:55 am PST S 3.5 10.00 Fair -- 41.0 23.0 49% NA NA 30.10 M
1:35 am PST N 0.0 10.00 Fair -- 41.0 23.0 49% NA NA 30.10 M
12:55 am PST NW 5.8 10.00 Fair -- 48.0 21.2 34% 45 NA 30.09 M
11:55 pm PST NW 4.6 10.00 Fair -- 50.0 21.2 32% 48 NA 30.07 M
11:35 pm PST NW 6.9 10.00 Fair -- 50.0 21.2 32% 47 NA 30.07 M
10:55 pm PST N 9.2 10.00 Fair -- 50.0 21.2 32% 46 NA 30.07 M
9:55 pm PST NW 6.9 10.00 Fair -- 52.0 21.2 30% 50 NA 30.05 M
8:55 pm PST N 9.2 10.00 Fair -- 52.0 21.2 30% 49 NA 30.03 M
7:55 pm PST N 9.2 10.00 A Few Clouds -- 55.0 19.4 24% 52 NA 30.03 M
7:35 pm PST NW 6.9 10.00 A Few Clouds -- 55.0 17.6 23% 53 NA 30.02 M
6:55 pm PST NW 6.9 10.00 Partly Cloudy -- 57.0 17.6 21% 56 NA 30.00 M
5:55 pm PST NW 6.9 10.00 A Few Clouds -- 59.0 17.6 20% 58 NA 29.98 M
4:55 pm PST N 11.5 10.00 Fair -- 64.0 15.8 15% NA NA 29.96 M

Regional Weather Observation


San Jose / Reid / Hillv, CA (KRHV)

Clear
55.0 F

South County Airport of Santa Clara County, CA (KE16)

Fair
50.0 F

Livermore, Livermore Municipal Airport, CA (KLVK)

Fair
58.0 F

Mountain View, Moffett Field, CA (KNUQ)

Fair
55.0 F

Tracy Municipal Airport, CA (KTCY)

Fair
59.0 F

Palo Alto Airport, CA (KPAO)

Clear
54.0 F